Location: *
(46.1006°N, 1.8394°E)
Time: 00:44:46
(UTC+00:00)

Cosmos 2219 - Pass Details

Date: 20 September 2019
Orbit: 834 x 859 km, 71.1° (Epoch: 21 October)

Event Time Altitude Azimuth Distance (km) Brightness Sun altitude
Rises 18:33:42 0° 180° (S) 3,419 6.3 -7.5°
Reaches altitude 10° 18:36:17 10° 173° (S) 2,487 5.5 -7.9°
Maximum altitude 18:41:32 39° 106° (ESE) 1,269 3.7 -8.8°
Drops below altitude 10° 18:46:49 10° 40° (NE) 2,501 5.4 -9.7°
Sets 18:49:25 0° 33° (NNE) 3,439 6.2 -10.2°
